Temp
62 62 61 61 61 61 61 61 61 61 61 61 61 61 61 61 60 56 63 75 73 74 75 74 73 71 69 65 65 61 56 51 54 55 66 66 70 74 79 75 76 80 77 79 76
61 61 61 61 61 61 61 61 61 61 61 61 61 61 61 61 55 62 76 75 75 76 72 71 69 69 65 62 64 61 54 57 62 61 65 68 64 72 75 75 74 78 78 77 76
61 61 61 61 61 60 60 60 61 61 61 61 61 61 61 59 61 70 78 74 75 76 73 71 70 67 61 60 60 57 58 61 69 67 64 65 66 70 68 68 70 73 77 74 74
61 61 61 60 60 60 60 60 60 61 61 61 61 61 61 58 57 71 76 75 75 75 74 70 67 60 58 59 61 57 67 65 70 66 65 64 66 66 67 67 75 75 77 74 72
60 60 60 60 60 60 60 60 60 60 60 60 60 61 58 62 69 73 76 75 74 73 72 68 64 60 57 59 61 59 65 66 70 66 65 69 65 66 68 74 76 77 76 74 72
60 60 60 60 60 60 60 59 59 59 60 60 61 61 61 59 76 76 75 74 74 71 71 69 67 67 61 61 60 65 62 66 63 64 68 67 67 67 70 74 74 74 72 72 71
59 59 59 59 59 60 60 59 59 59 60 61 61 63 62 71 77 76 76 73 75 76 72 72 72 68 65 63 64 62 61 64 66 64 67 69 64 64 70 72 70 71 71 71 71
59 59 59 59 59 60 60 59 59 60 61 61 63 61 64 76 76 72 72 76 77 77 76 76 74 67 63 66 67 63 59 53 63 66 68 68 55 66 69 69 67 69 69 69 70
59 58 59 59 59 59 59 58 60 63 63 63 58 60 67 78 77 80 77 78 78 78 75 87 74 64 66 58 56 57 52 53 59 66 65 65 56 66 68 68 66 66 67 68 68
59 58 58 58 59 59 58 58 62 62 64 68 71 63 72 73 79 81 76 78 77 76 74 72 63 60 56 56 51 52 53 54 54 62 64 59 57 61 64 65 64 65 65 65 66
59 58 58 58 58 58 56 66 64 65 65 61 64 68 73 80 81 78 80 78 75 72 62 64 61 55 59 61 61 59 56 57 58 62 60 54 56 59 61 61 63 64 64 63 64
58 58 58 58 58 57 58 63 63 61 57 67 67 69 74 76 73 78 81 70 68 61 64 62 58 65 65 65 63 60 58 55 59 63 60 55 55 59 61 62 63 65 63 64 64
57 57 57 58 57 59 59 65 67 61 55 64 69 69 72 74 72 74 79 71 65 61 60 58 66 71 69 64 64 58 58 57 57 60 60 56 53 54 60 63 65 67 67 66 64
57 57 57 56 61 54 62 66 62 61 50 62 67 74 73 73 70 81 81 74 67 62 63 62 70 69 65 65 64 55 66 65 60 54 47 56 42 50 55 58 61 62 64 64 65
57 57 56 56 52 56 65 63 62 63 45 68 69 77 71 72 72 75 79 75 64 66 65 64 66 64 63 64 65 62 66 62 59 53 50 52 46 48 54 54 57 61 63 64 64
57 57 56 55 50 57 60 60 63 53 46 64 70 70 67 70 72 73 73 77 72 65 64 64 69 67 66 69 66 68 63 57 52 50 44 47 46 45 49 54 58 62 63 64 63
57 57 55 57 59 58 59 61 51 47 65 63 64 66 63 64 66 68 67 63 59 54 55 62 64 69 71 65 67 63 53 43 44 42 42 50 47 48 56 60 60 60 61 62 63
55 54 53 57 55 59 60 55 42 59 62 70 68 66 63 67 66 67 63 58 63 59 54 52 54 65 71 62 59 56 52 45 39 39 42 51 43 49 60 62 63 63 61 63 61
53 51 54 60 58 57 57 48 51 58 67 66 66 60 58 65 66 64 59 58 60 59 54 52 56 67 69 66 62 55 52 53 45 42 42 42 49 57 59 59 60 60 61 59 58
46 47 55 63 62 59 54 49 55 65 69 67 58 61 56 59 61 58 57 62 62 64 59 55 52 62 67 67 67 61 61 51 45 38 36 41 42 44 52 55 57 58 57 60 61
47 51 64 64 63 55 49 49 59 69 69 65 61 60 59 60 60 56 57 63 65 64 62 53 53 58 61 57 53 56 53 48 46 43 39 36 41 52 50 53 52 55 58 58 59
45 48 63 63 55 45 45 54 60 68 69 68 67 63 60 61 59 58 57 59 65 63 57 53 49 48 52 58 60 56 51 49 44 42 39 40 40 52 51 52 53 53 56 58 58
43 46 61 63 48 49 52 60 65 66 66 66 64 65 62 59 56 59 59 65 65 61 55 53 44 43 50 55 58 54 55 49 46 43 40 39 40 54 54 54 54 55 56 57 58
45 45 53 54 50 49 50 56 59 67 67 65 64 66 61 57 58 57 59 65 65 61 61 57 45 45 42 46 50 49 52 52 47 42 41 41 44 48 50 51 54 54 54 55 56
43 46 50 48 50 49 51 55 58 59 64 64 63 64 60 54 56 56 58 59 65 62 56 54 46 47 49 55 54 51 50 50 47 45 43 45 45 47 50 51 53 54 55 56 55
44 45 48 49 51 50 51 53 56 60 58 62 61 61 61 58 58 56 58 53 54 59 51 49 44 46 48 54 53 50 52 52 51 50 48 47 45 51 54 55 54 53 54 53 53
45 47 49 48 49 50 52 55 58 58 62 63 62 61 60 60 62 59 56 56 55 52 49 47 44 43 41 49 49 44 48 49 49 50 49 44 47 52 52 53 52 53 53 52 53
MSLP
1018.43 1017.92 1017.76 1017.40 1016.81 1016.64 1015.88 1015.24 1015.29 1014.70 1014.16 1013.62 1013.04 1012.84 1012.55 1012.13 1011.27 1011.02 1009.80 1008.09 1007.92 1007.93 1007.91 1008.14 1008.27 1008.44 1008.68 1009.16 1009.48 1010.07 1010.94 1011.13 1009.98 1009.10 1007.94 1006.91 1006.58 1005.04 1004.54 1005.01 1005.18 1004.99 1005.11 1005.31 1006.02
1018.42 1018.09 1017.89 1017.25 1016.71 1016.36 1015.66 1015.09 1015.09 1014.41 1013.92 1013.38 1012.81 1012.73 1012.35 1011.93 1011.11 1009.78 1007.35 1007.62 1007.71 1007.66 1007.68 1007.90 1008.07 1008.24 1008.93 1009.18 1009.58 1010.04 1010.71 1010.02 1009.06 1008.39 1007.75 1007.21 1007.50 1006.70 1005.92 1005.89 1005.76 1005.31 1005.12 1005.81 1006.79
1019.00 1018.50 1017.75 1016.96 1016.55 1016.06 1015.44 1015.00 1014.73 1014.13 1013.64 1013.06 1012.71 1012.53 1012.17 1011.81 1010.68 1008.00 1006.86 1007.50 1007.56 1007.48 1007.69 1007.82 1008.00 1008.22 1008.68 1009.08 1009.42 1009.70 1009.71 1009.08 1007.99 1007.84 1007.88 1007.68 1007.86 1007.79 1007.36 1006.92 1006.76 1006.72 1006.47 1008.25 1008.93
1019.01 1017.91 1017.15 1016.88 1016.09 1015.89 1015.24 1014.72 1014.27 1013.81 1013.37 1012.81 1012.55 1012.25 1011.99 1011.47 1009.75 1007.48 1007.07 1007.33 1007.45 1007.53 1007.70 1007.91 1008.02 1008.30 1008.69 1008.88 1008.96 1009.30 1008.60 1008.54 1007.99 1007.68 1007.74 1008.06 1008.22 1008.67 1009.03 1009.06 1007.29 1006.35 1006.89 1008.23 1009.06
1018.56 1017.76 1017.62 1017.05 1016.43 1015.53 1014.80 1014.23 1013.71 1013.34 1013.03 1012.58 1012.33 1011.98 1011.91 1010.51 1008.34 1007.37 1007.14 1007.36 1007.46 1007.54 1007.58 1007.81 1007.99 1008.30 1008.59 1008.74 1008.92 1009.09 1008.51 1008.76 1008.09 1008.49 1008.25 1008.44 1009.46 1009.88 1009.61 1009.11 1007.56 1007.02 1008.19 1009.15 1009.74
1018.31 1018.24 1017.57 1016.51 1015.94 1014.85 1014.32 1013.67 1013.09 1012.87 1012.54 1012.21 1011.99 1011.87 1011.50 1009.41 1006.85 1007.09 1007.36 1007.57 1007.46 1007.54 1007.63 1007.76 1007.83 1007.90 1008.28 1008.41 1008.76 1008.44 1008.53 1008.72 1008.39 1008.76 1008.92 1008.91 1009.98 1009.90 1010.66 1010.05 1009.34 1008.24 1009.68 1010.38 1010.74
1018.16 1017.59 1016.72 1016.37 1015.17 1014.50 1013.76 1013.03 1012.47 1012.14 1011.84 1011.77 1011.49 1011.62 1010.52 1007.91 1006.71 1006.98 1007.29 1007.32 1007.24 1007.37 1007.38 1007.49 1007.63 1007.96 1007.94 1008.03 1008.12 1008.30 1008.51 1008.63 1009.32 1009.09 1009.12 1008.97 1010.80 1011.65 1011.64 1010.89 1010.40 1010.11 1010.32 1010.81 1011.33
1018.14 1017.56 1016.84 1015.75 1014.99 1014.01 1013.16 1012.43 1011.96 1011.44 1011.12 1011.17 1011.20 1011.33 1009.32 1006.85 1006.74 1006.83 1006.96 1006.95 1006.97 1006.99 1007.02 1006.99 1007.39 1007.91 1008.27 1008.01 1007.86 1008.12 1008.90 1009.38 1009.71 1009.58 1009.44 1009.41 1012.47 1012.71 1012.51 1012.04 1011.87 1011.94 1011.70 1012.28 1012.11
1018.15 1017.48 1016.67 1015.74 1014.93 1013.74 1012.73 1011.99 1011.48 1011.25 1010.83 1011.10 1011.37 1010.71 1008.19 1006.51 1006.64 1006.30 1006.44 1006.62 1006.53 1006.47 1006.66 1006.89 1007.41 1008.48 1008.51 1008.91 1009.23 1009.56 1009.78 1009.87 1010.00 1009.96 1009.83 1010.27 1013.03 1013.53 1013.26 1013.03 1013.11 1012.75 1012.83 1012.96 1013.43
1018.18 1017.51 1016.63 1015.71 1014.66 1013.33 1012.27 1011.47 1011.32 1011.01 1011.07 1011.26 1010.82 1010.31 1007.76 1006.91 1006.29 1006.18 1006.29 1006.51 1006.46 1006.53 1006.84 1007.33 1008.42 1008.97 1009.49 1009.43 1009.74 1009.83 1009.87 1010.33 1010.72 1011.60 1011.10 1012.40 1013.75 1014.14 1014.13 1013.96 1014.02 1013.53 1013.81 1013.77 1013.92
1017.78 1017.23 1016.35 1015.63 1014.59 1013.12 1012.36 1011.44 1011.79 1011.26 1011.17 1011.02 1010.27 1009.51 1008.11 1006.95 1006.23 1005.95 1005.93 1006.37 1006.45 1006.78 1007.40 1007.91 1008.84 1009.01 1008.72 1008.71 1008.69 1009.09 1009.47 1010.56 1011.50 1011.78 1012.45 1013.95 1014.21 1014.64 1014.96 1014.80 1014.46 1014.27 1013.94 1013.82 1014.38
1017.94 1017.39 1016.53 1015.43 1014.00 1013.29 1013.07 1013.02 1013.59 1014.35 1012.62 1010.16 1009.60 1008.94 1007.89 1007.34 1006.65 1005.78 1005.69 1006.32 1006.54 1007.13 1007.37 1007.98 1008.25 1007.78 1007.77 1007.84 1008.23 1008.77 1009.49 1010.75 1011.80 1011.96 1012.91 1014.30 1014.68 1014.77 1014.90 1015.10 1014.98 1014.82 1014.08 1013.35 1014.12
1018.01 1017.34 1016.37 1015.31 1014.06 1013.83 1014.00 1013.26 1013.75 1014.23 1013.28 1009.90 1008.77 1008.03 1007.07 1007.14 1006.46 1005.78 1005.77 1006.11 1006.56 1007.08 1007.44 1007.71 1007.33 1006.91 1007.04 1007.29 1007.81 1008.52 1009.19 1010.13 1011.45 1012.56 1013.33 1013.93 1015.03 1015.52 1015.34 1015.15 1014.92 1015.07 1015.41 1013.59 1013.75
1017.96 1017.37 1016.99 1015.41 1014.45 1014.99 1013.83 1013.46 1013.65 1013.68 1012.58 1009.51 1008.02 1006.57 1006.51 1006.38 1006.15 1005.52 1005.51 1005.97 1006.49 1006.94 1007.34 1007.39 1006.79 1006.70 1006.85 1006.99 1007.38 1008.10 1008.76 1009.62 1011.57 1012.57 1013.93 1014.45 1016.18 1016.02 1015.97 1015.76 1015.19 1015.11 1015.25 1013.65 1014.06
1017.79 1017.27 1017.06 1016.97 1016.38 1015.36 1013.87 1013.61 1012.85 1013.03 1011.29 1008.24 1006.88 1005.80 1006.15 1006.40 1006.16 1005.73 1005.45 1005.72 1006.43 1006.96 1007.43 1007.39 1006.90 1006.71 1006.69 1006.93 1007.23 1008.17 1008.81 1010.22 1011.62 1012.88 1014.19 1015.48 1016.15 1016.41 1016.29 1016.04 1015.56 1015.03 1014.49 1014.48 1014.62
1017.67 1016.99 1016.90 1016.42 1016.26 1014.56 1013.69 1013.25 1013.00 1012.53 1009.58 1007.45 1006.29 1006.06 1006.48 1006.41 1006.25 1006.00 1005.88 1006.00 1006.71 1007.23 1007.64 1007.60 1006.94 1006.72 1006.51 1006.96 1007.44 1008.22 1009.46 1011.14 1012.63 1013.81 1015.42 1016.00 1016.36 1016.86 1016.64 1016.26 1016.04 1015.60 1015.47 1015.54 1015.54
1017.38 1017.14 1016.98 1016.56 1015.34 1014.30 1013.77 1013.31 1013.05 1011.25 1008.58 1007.37 1006.58 1006.51 1006.78 1006.85 1006.74 1006.65 1006.87 1007.42 1008.00 1008.40 1008.79 1008.20 1007.57 1006.98 1006.73 1007.31 1007.76 1008.70 1010.55 1012.47 1014.16 1015.35 1016.33 1016.15 1016.50 1016.84 1016.37 1016.25 1016.12 1015.97 1015.94 1016.14 1016.63
1016.86 1016.20 1015.86 1014.92 1014.32 1014.18 1013.95 1013.69 1012.52 1009.96 1008.34 1007.01 1006.68 1006.86 1007.19 1007.07 1007.29 1007.54 1007.87 1008.69 1008.80 1009.08 1009.62 1009.41 1008.66 1008.02 1007.71 1008.00 1008.79 1009.98 1011.30 1013.04 1014.82 1016.43 1016.70 1016.54 1017.06 1016.89 1016.43 1016.00 1015.88 1016.23 1016.52 1016.94 1017.39
1016.66 1015.47 1015.06 1013.77 1013.88 1014.20 1014.22 1013.70 1011.62 1009.53 1008.02 1007.25 1006.84 1007.15 1007.53 1007.33 1007.67 1008.32 1009.14 1009.73 1009.80 1009.72 1009.93 1010.00 1009.55 1008.72 1008.44 1008.59 1009.28 1010.35 1011.80 1012.99 1014.83 1016.60 1017.18 1017.71 1017.41 1016.89 1016.63 1016.64 1016.66 1017.06 1017.39 1017.75 1017.94
1017.72 1016.85 1014.87 1013.87 1013.93 1014.18 1014.43 1013.14 1011.11 1009.26 1007.98 1007.21 1006.89 1007.31 1007.89 1007.96 1008.32 1009.05 1009.78 1010.09 1010.16 1010.24 1010.04 1010.71 1010.49 1009.77 1009.29 1009.15 1009.63 1010.31 1012.07 1013.47 1015.15 1017.05 1018.04 1018.38 1018.30 1018.21 1017.97 1017.76 1017.85 1018.02 1018.28 1018.35 1018.14
1017.90 1016.60 1014.18 1013.70 1013.70 1014.37 1014.27 1012.86 1010.90 1008.72 1007.82 1007.16 1006.98 1007.53 1008.11 1008.49 1009.05 1009.91 1010.59 1010.44 1010.44 1010.60 1010.66 1011.29 1011.47 1011.21 1010.59 1011.09 1011.57 1011.76 1012.86 1014.53 1016.03 1017.40 1018.34 1019.00 1019.14 1018.97 1018.99 1018.78 1018.96 1019.01 1019.00 1019.00 1018.94
1018.07 1016.88 1014.25 1014.02 1014.48 1015.12 1014.10 1012.65 1010.85 1008.90 1007.51 1007.04 1007.03 1007.62 1008.26 1008.84 1009.99 1010.45 1010.90 1011.05 1010.89 1011.08 1011.83 1012.48 1013.04 1013.03 1012.62 1012.16 1012.23 1012.72 1013.76 1014.94 1016.67 1018.13 1018.81 1019.22 1019.80 1019.54 1019.68 1019.70 1019.74 1019.79 1019.60 1019.39 1019.18
1018.56 1017.19 1014.47 1014.18 1015.06 1014.99 1013.86 1012.42 1010.84 1009.13 1008.00 1007.48 1007.60 1007.80 1008.45 1009.42 1010.45 1010.97 1011.21 1011.33 1011.27 1011.73 1012.49 1013.05 1014.73 1014.72 1013.90 1013.49 1013.36 1014.18 1014.91 1015.62 1016.58 1017.61 1019.09 1019.74 1020.22 1020.01 1019.98 1020.05 1020.14 1020.08 1019.89 1019.71 1019.38
1018.81 1017.89 1015.96 1015.25 1015.35 1014.87 1013.97 1012.41 1010.68 1008.93 1008.38 1008.05 1008.12 1008.18 1008.88 1010.03 1010.32 1011.23 1011.68 1011.87 1012.01 1012.58 1013.04 1013.67 1015.63 1015.93 1015.62 1015.51 1015.55 1015.95 1016.28 1016.37 1016.98 1018.12 1019.25 1019.74 1020.15 1020.41 1020.47 1020.42 1020.31 1020.27 1020.12 1019.88 1019.49
1018.91 1018.22 1017.16 1016.17 1015.47 1014.86 1013.90 1012.61 1011.10 1009.75 1008.82 1008.51 1008.64 1008.85 1009.26 1010.80 1011.16 1011.83 1012.10 1012.35 1012.64 1013.19 1013.96 1014.79 1016.59 1016.69 1016.60 1016.48 1016.45 1017.22 1017.44 1017.29 1017.87 1018.73 1019.31 1019.88 1020.12 1020.31 1020.26 1020.24 1020.22 1020.18 1019.99 1019.92 1019.83
1019.04 1018.63 1017.41 1016.50 1015.50 1014.86 1013.89 1012.45 1011.39 1010.37 1009.84 1009.27 1009.38 1009.66 1009.73 1010.68 1011.08 1012.02 1012.55 1013.01 1013.43 1014.01 1015.02 1016.14 1017.58 1017.62 1017.94 1017.51 1017.30 1017.84 1018.28 1018.54 1019.04 1019.59 1019.99 1020.20 1020.27 1020.20 1020.06 1020.07 1020.23 1020.34 1020.26 1020.33 1020.24
1018.97 1018.43 1018.02 1016.79 1015.72 1014.83 1013.71 1012.55 1011.47 1010.72 1010.32 1009.96 1010.06 1010.04 1010.80 1011.33 1011.49 1012.32 1012.74 1013.43 1013.96 1014.71 1016.17 1017.06 1018.26 1018.79 1018.83 1018.26 1018.03 1018.51 1019.11 1019.35 1019.77 1019.97 1020.17 1020.40 1020.40 1020.30 1020.38 1020.45 1020.44 1020.44 1020.68 1020.74 1020.56
Wind_Speed
16 16 16 15 16 17 18 18 19 19 19 20 19 18 17 17 14 3 4 6 4 6 4 4 3 3 4 3 3 3 5 2 5 2 7 3 8 3 0 5 2 4 2 3 13
17 17 17 16 17 18 18 18 20 19 18 19 17 17 15 14 2 4 9 5 4 3 2 2 2 3 4 2 1 5 4 7 5 4 5 6 2 10 9 5 1 4 2 9 12
16 16 17 18 19 19 19 19 20 20 19 18 17 16 14 8 3 3 3 9 7 4 3 2 3 2 4 1 3 3 4 4 6 5 3 4 4 7 8 6 5 11 7 14 13
18 18 19 20 21 21 19 20 20 21 20 18 17 15 14 4 2 2 8 10 6 5 5 3 3 3 3 3 1 2 7 5 6 3 3 4 3 6 13 7 17 9 11 17 13
17 19 19 20 20 20 20 21 21 20 20 18 16 12 7 2 7 4 9 7 4 2 3 2 4 2 1 2 3 4 4 5 6 6 6 9 10 9 18 16 11 19 19 17 10
17 17 18 21 22 22 22 22 21 20 18 16 12 8 4 2 0 8 7 4 3 2 3 3 3 4 2 4 4 6 2 5 1 5 7 14 10 6 14 13 16 24 21 20 18
17 20 21 22 23 23 23 23 23 21 18 13 7 2 1 8 2 6 7 4 4 3 1 4 3 0 1 5 2 1 5 4 8 4 5 3 15 14 13 12 19 20 19 19 18
17 20 21 25 26 26 25 24 23 19 9 7 5 3 6 2 3 2 3 3 5 5 3 4 4 1 2 5 9 7 7 4 5 8 6 9 3 9 13 12 16 16 18 18 19
17 20 22 24 27 27 26 25 19 7 5 6 2 0 6 2 2 3 4 3 1 1 1 1 5 3 5 4 6 8 2 3 3 11 3 8 3 8 11 8 12 14 15 15 16
17 20 22 25 27 28 28 20 3 2 1 2 4 2 2 1 4 2 2 1 3 2 4 6 6 4 4 5 2 2 3 5 5 7 18 13 7 5 7 8 10 13 13 14 15
19 20 24 26 28 29 15 2 7 7 7 3 2 4 6 8 3 2 3 4 2 7 1 1 5 2 5 6 3 3 6 10 2 3 11 4 6 7 4 5 7 9 12 15 14
17 20 23 27 28 25 5 7 5 4 9 4 5 6 6 3 3 2 4 2 2 1 4 6 1 5 2 4 3 3 8 4 6 3 8 3 8 5 6 3 1 5 7 16 9
16 18 23 29 28 4 4 6 2 2 3 8 5 4 4 7 2 4 4 2 2 2 2 3 5 3 1 3 3 3 5 5 8 3 5 1 5 7 5 6 5 2 2 11 14
16 17 18 32 4 5 4 3 6 5 4 5 3 7 4 2 3 4 4 2 3 2 4 2 4 2 2 2 4 2 5 5 14 5 4 3 3 6 5 7 7 7 3 9 11
16 16 15 8 5 4 4 9 7 3 2 2 3 1 1 5 2 4 0 3 1 2 4 2 2 1 2 1 2 4 5 6 5 5 5 5 6 6 5 4 6 10 10 10 8
14 18 15 1 1 7 8 9 4 5 2 1 4 3 4 2 4 2 2 6 2 3 2 5 4 2 1 3 3 4 5 8 6 4 5 3 5 5 3 3 3 5 5 6 8
17 18 11 2 4 4 6 4 5 3 4 2 3 4 2 2 1 1 3 6 3 3 6 6 4 6 3 6 6 8 8 5 6 7 3 4 5 6 3 0 3 5 4 2 5
20 22 4 5 3 5 3 6 2 3 4 3 3 5 4 5 3 3 3 6 5 4 3 3 7 7 9 2 5 4 5 7 2 1 3 5 3 3 3 7 6 4 3 4 6
18 5 4 4 4 1 6 2 6 3 3 3 3 5 2 1 5 5 4 2 3 3 4 3 3 5 5 4 2 2 6 4 8 3 4 2 1 3 4 4 3 5 5 5 4
4 5 5 1 4 5 4 5 4 4 5 1 3 3 4 1 5 4 4 2 3 5 1 2 3 2 5 3 6 5 4 5 5 2 1 3 1 3 5 3 4 4 4 4 6
3 5 3 3 3 5 3 5 6 7 5 1 3 4 2 5 4 3 3 3 5 4 7 2 3 4 4 5 3 7 5 7 6 4 5 2 4 4 3 2 5 5 5 5 5
2 3 2 1 4 1 1 3 5 7 3 2 3 3 3 4 5 4 3 3 6 1 3 2 5 2 1 1 2 2 2 4 6 3 2 4 4 5 5 6 6 5 5 5 5
1 4 4 3 1 2 5 5 4 4 4 5 3 3 2 5 8 3 3 2 7 4 3 2 4 4 7 7 7 7 6 4 4 4 2 5 3 4 6 7 5 4 5 6 7
2 2 4 4 1 2 3 4 6 3 2 3 3 5 6 7 6 6 3 5 4 4 8 7 4 5 7 3 2 4 7 4 3 4 4 2 4 2 3 2 4 5 5 6 6
2 3 1 2 3 3 2 3 4 6 5 7 4 5 6 5 5 5 3 2 5 7 5 6 5 2 4 6 7 5 7 10 6 1 3 5 3 1 3 2 3 4 7 7 8
2 1 4 3 3 2 3 3 3 4 3 4 5 3 5 6 6 7 5 2 1 6 4 4 2 2 6 7 8 8 7 7 7 6 6 5 1 3 5 4 5 6 7 8 8
1 3 3 3 2 2 3 4 2 2 7 3 4 8 10 4 6 5 5 6 5 4 3 5 5 3 0 3 2 7 5 4 3 3 3 2 4 3 4 6 6 6 6 6 7
Wind_Direction
347 346 335 330 332 321 326 329 316 317 319 315 320 320 319 312 308 159 243 208 143 153 153 152 148 58 68 95 94 122 61 281 257 190 273 332 3 279 208 104 354 230 255 281 124
342 340 330 332 330 322 323 324 312 314 315 312 320 317 316 312 305 248 243 140 120 172 68 90 10 45 65 93 51 94 115 226 216 221 280 313 20 330 354 359 176 276 56 99 124
334 331 332 334 328 321 320 318 310 312 313 312 316 314 308 303 316 264 90 134 153 144 96 79 67 74 81 118 176 167 197 213 277 248 262 292 82 13 350 8 353 291 3 48 74
328 338 337 327 328 315 315 313 309 311 311 310 312 312 303 257 124 60 123 134 149 134 123 99 13 65 77 8 75 348 253 204 307 22 20 2 337 70 36 312 293 274 114 92 93
329 335 327 321 316 312 316 312 307 309 302 303 306 310 287 336 253 126 122 131 121 142 88 92 55 105 119 234 341 170 262 97 298 86 66 82 52 72 27 356 24 68 72 74 75
330 322 324 325 316 319 314 311 310 303 297 296 292 310 258 299 3 136 121 112 106 113 138 164 168 198 206 212 166 201 296 296 168 94 63 82 30 51 354 347 38 67 65 60 56
330 327 330 321 325 318 316 316 311 304 294 275 262 249 67 229 73 139 160 182 177 182 226 190 151 158 285 307 223 217 43 36 18 293 142 73 35 24 357 21 50 57 67 62 52
329 328 327 328 323 319 319 319 309 308 283 217 197 236 243 248 90 139 148 255 189 214 219 171 153 136 303 319 360 17 74 66 1 357 1 85 19 13 4 36 47 44 51 48 54
329 331 330 328 321 318 323 316 308 306 117 137 183 168 274 307 270 243 162 235 234 206 256 117 90 74 17 54 15 6 40 23 44 359 75 70 124 1 10 47 64 60 51 55 39
331 330 329 329 321 323 326 307 226 77 72 218 254 35 292 294 293 256 200 192 272 313 34 52 49 54 30 64 228 350 57 60 58 340 69 61 58 12 8 53 70 75 64 53 40
331 333 331 326 325 329 335 297 5 8 28 278 229 245 279 296 267 222 150 127 102 59 80 51 76 232 223 197 209 102 89 111 130 144 66 50 66 27 29 36 63 77 87 68 52
334 328 329 327 331 320 279 72 90 243 311 266 242 267 259 246 308 305 114 127 69 10 330 27 7 234 213 161 118 118 112 86 52 18 90 152 49 338 24 15 133 87 103 98 80
329 331 332 330 323 4 332 91 327 180 239 297 221 222 235 146 220 269 144 137 114 61 17 130 254 323 126 78 126 118 124 191 132 109 26 164 33 5 338 352 31 243 319 80 81
325 331 336 329 39 322 307 353 273 209 42 271 253 275 154 181 299 220 196 133 31 40 137 221 291 28 360 94 122 88 174 166 141 115 173 57 241 342 351 327 357 13 123 56 75
320 328 330 344 286 310 298 316 326 81 56 168 177 106 48 132 291 349 210 54 164 350 61 279 329 325 32 353 193 187 89 131 121 92 106 17 77 276 352 340 343 1 9 27 28
322 318 335 28 341 253 324 306 59 41 270 146 130 134 98 25 355 320 59 45 70 68 15 259 296 273 282 88 49 122 87 55 56 80 46 310 116 282 256 283 337 318 353 352 2
318 307 310 161 243 320 300 40 43 133 346 187 149 119 102 147 329 64 58 33 67 55 4 341 339 317 39 45 7 60 53 1 18 20 201 317 56 246 322 148 239 232 255 327 2
315 310 198 233 275 350 18 50 196 264 243 306 131 102 157 171 31 46 54 32 12 58 70 61 356 2 333 96 171 59 126 141 179 189 241 356 63 265 270 304 238 198 145 54 15
317 323 296 272 157 126 66 91 219 222 299 340 97 102 241 113 107 76 52 48 17 4 114 115 13 337 51 356 71 156 54 161 105 24 79 276 335 340 348 37 78 105 82 44 0
342 339 284 40 157 60 80 236 258 229 325 18 126 117 167 110 85 81 15 22 333 44 177 170 111 10 298 41 23 105 146 52 14 87 353 328 115 252 339 11 37 61 85 25 23
24 3 304 150 73 46 177 238 284 269 223 221 131 114 131 118 83 69 345 358 8 351 65 61 80 297 37 30 332 2 25 50 106 110 156 184 261 359 320 40 65 52 53 35 12
31 349 307 42 40 64 228 218 287 282 349 327 103 92 118 105 72 84 105 317 345 298 56 353 127 80 128 359 264 39 110 111 112 225 68 134 257 349 75 84 83 51 19 351 327
51 266 309 97 183 303 291 278 256 301 331 348 65 73 80 110 101 91 107 353 15 56 97 182 21 45 353 355 8 44 348 81 95 94 168 136 241 39 48 49 31 22 338 319 306
70 344 312 56 146 166 316 290 296 285 290 25 48 86 83 46 19 136 109 25 19 70 61 84 82 136 169 207 202 20 349 356 96 94 166 195 141 12 31 30 338 328 306 306 318
61 259 239 291 306 242 321 286 307 358 338 26 25 45 122 92 56 88 80 62 25 1 48 86 82 61 40 83 81 94 49 35 70 26 98 166 107 304 240 261 315 330 348 345 341
154 106 351 282 309 210 178 264 309 326 7 342 99 16 87 134 167 165 130 137 155 24 58 23 122 5 45 62 73 72 38 57 52 55 66 82 28 235 267 290 320 337 345 342 330
261 279 122 266 330 146 215 263 275 295 13 43 116 91 51 352 113 97 86 84 91 103 93 72 117 81 93 318 270 32 356 42 74 35 158 261 238 324 313 311 298 309 334 313 323